星链-31484 (STARLINK-31484 )

导读 | 星芒AI

STARLINK-31484 是 SpaceX Starlink 卫星互联网项目中的一颗低轨卫星。该卫星属于 Starlink 群体的一部分,旨在为全球用户提供高速互联网服务。它运行在约 550 公里的近地轨道上,采用先进的通信技术,支持宽带连接。该卫星的发射有助于扩大 Starlink 的覆盖范围,提高网络性能,并为偏远地区提供稳定的网络接入。STARLINK-31484 的部署体现了 SpaceX 在构建全球卫星互联网基础设施方面的持续努力。

基本信息
目录编号:
59005
目录名称:
STARLINK-31484
国际标识:
2024-036H
轨道中心:
EARTH
卫星名称:
星链-31484
卫星全名:
星链-31484 (STARLINK-31484 )
卫星状态:
在轨 (已飞行618 天)
发射日期:
2024-02-23 UTC
国别 :
美国 (US)
星等 :
--
轨道信息
数据来源 国际轨道数据
星历时间: 2025-11-01T15:53:26+0800
1天前
查看轨道信息
半长轴: 6853.372km
偏心率: 0.000123
轨道倾角: 53.161°
近地点辐角 98.382°
升交点赤经 314.138°
平近点角 261.732°
近地点: 474.394km
远地点: 476.08km
周期: 94.106分钟
每日圈数: 15.301935
详细信息
固有亮度:
5
最大亮度:
0.3
卫星平台:
Starlink v2.0 mini
覆盖范围:
全球
运营商:
太空探索技术公司
运营商所在国:
美国
制造商(研发单位):
太空探索技术公司
制造商所在国:
美国
使用方式:
暂无
卫星简介
星链(Starlink)计划是由太空探索技术公司(SpaceX)提出的一个巨型低轨卫星互联网星座项目,计划在2019年至2024年间在太空搭建由约1.2万颗卫星组成的“星链”网络,其中1584颗将部署在地球上空550千米处的近地轨道,并从2020年开始工作。该卫星仍在工作。
2D轨道图
3D轨道图
轨道高度分析图
轨道倾角分析图
轨道综合分析图
查看轨道综合分析图